Погода в Фелиду

Мальдивы     3°28′19″N   73°32′45″E
темп.,
°C
ветер,
м/с
пор.,
м/с
влажн.,
%
обл.,
%
осадки,
мм/ч
давл.,
гПа
погр.,
м
6 марта, сб
сб623:00+28в55750 0.0 1013893
02:00+28всв4475100 0.0 1011844
05:00+28всв4575100 0.1 1011774
08:00+28всв567460 0.1 1013793
11:00+28всв446935 0.1 1013941
14:00+29св346815 0.0 10111024
17:00+29св447213 0.1 1010910
20:00+29св667438 0.4 1013858
7 марта, вс
вс723:00+28св557619 0.4 1013820
02:00+28св557230 0.0 1011923
05:00+28всв457150 0.0 10101004
08:00+28св557672 0.1 1012739
11:00+28св677749 0.2 1012821
14:00+28ссв67749 0.0 1009864
17:00+28ссв66744 0.0 1009990
20:00+28св567151 0.0 10111101
8 марта, пн
пн823:00+28св457049 0.0 10121139
02:00+28всв336641 0.0 10091016
05:00+28в226421 0.0 1009990
08:00+28всв34670 0.0 10121080
11:00+28св446839 0.0 10121102
14:00+28св446937 0.0 1009928
17:00+28ссв447136 0.1 1008790
20:00+29св447222 0.0 1011869
9 марта, вт
вт923:00+28св347111 0.1 1012692
02:00+28св22721 0.0 1009465
05:00+28ссв12720 0.0 1009494
08:00+28в22723 1.2 1011469
11:00+29всв336941 5.5 1012542
14:00+29всв3367100 0.1 1009959
17:00+29св447094 1.4 1009725
20:00+29св457395 0.4 1012906
10 марта, ср
ср1023:00+29всв457498 0.9 1012771
02:00+28вюв347289 1.1 1009568
05:00+29юв447295 1.4 1009885
08:00+29ю4572100 3.6 1012607
11:00+29ююв337098 3.7 1012706
14:00+28ю227299 6.5 1009163
17:00+26ююз438199 11.1 1009260
20:00+27сз2274100 4.6 1012223